Погода в Нижнем Туровце

Россия / Орловская область     52°39′52″N   37°01′48″E
темп.,
°C
ветер,
м/с
пор.,
м/с
влажн.,
%
обл.,
%
осадки,
мм/ч
давл.,
гПа
погр.,
м
5 декабря, вс
вс500:00−3юз36935 0.0 1015167
03:00−3ююз24946 0.0 1015113
06:00−3ю2390100 0.0 1015120
09:00−3ю2488100 0.0 1016205
12:00−2ююз348298 0.0 1016258
15:00−2ю22875 0.0 101774
18:00−4ю239128 0.0 101751
21:00−4ю2485100 0.0 101871
6 декабря, пн
пн600:00−4ююв2583100 0.0 101995
03:00−4ююв2581100 0.0 1020107
06:00−3юв3678100 0.0 1019147
09:00−3юв3875100 0.0 1020223
12:00−2юв4968100 0.0 1020384
15:00−2юв4770100 0.0 1020299
18:00−2юв4975100 0.0 1019247
21:00−2юв51185100 0.0 1019321
7 декабря, вт
вт700:00−1юв51292100 0.1 1018392
03:00−1юв71497100 2.3 1016395
06:000ююв71597100 1.6 1014514
09:00+1ююв61398100 2.6 1013372
12:00+2ююв51399100 0.6 1012352
15:00+2ююв512100100 1.4 1011282
18:00+4ю515100100 0.3 1010348
21:00+5ю81798100 3.4 1010351
8 декабря, ср
ср800:00+3ююв51495100 4.7 1011318
03:00+2ююв51194100 5.6 1010227
06:00+1ююв4895100 0.2 1011161
09:00+1ююв3695100 0.2 1012111
12:00+2юв3597100 0.0 1012135
15:00+2вюв3697100 0.0 1011138
18:00+1в3697100 0.0 1012131
21:00+1в3797100 0.0 1012176
9 декабря, чт
чт900:00+1в3798100 0.0 1012177
03:00+1в3798100 0.0 1012173
06:000вюв3698100 0.0 1012118
09:00+1вюв3798100 0.0 1012161
12:00+2вюв3798100 0.0 1012170
15:00+2юв2399100 0.2 101260
18:00+3вюв369965 0.2 1013133
21:00+3юв2398100 0.2 101353